Location: Unspecified
(0.0000°N, 0.0000°E)
Time: 20:44:19
(UTC+01:00)

Amateur Radio Satellites - All Passes

Search period start: 24 February 2017 20:14
Search period end: 25 February 2017 20:14
Location: Unspecified, 0.0000°N, 0.0000°E

Satellite Date Start Highest point End Downlink Frequencies (MHz)
Time Altitude Azimuth
Oscar 11 24 Feb 20:37:14 20:37:53 10° 78° (ENE) 20:38:32 .
JUGNU 24 Feb 20:39:29 20:44:02 23° 343° (NNW) 20:48:35 437.505
UWE-3 24 Feb 20:49:07 20:53:11 44° 78° (ENE) 20:57:20 435.000/436.395/437.385
AAUSAT CUBESAT 2 24 Feb 20:54:15 20:58:26 73° 79° (ENE) 21:02:35 437.432
SEEDS 24 Feb 21:02:08 21:05:57 33° 258° (WSW) 21:09:46 437.485
ZACube-1 24 Feb 21:12:28 21:16:36 49° 78° (ENE) 21:20:50 437.345
HO-68 24 Feb 21:20:18 21:26:11 28° 255° (WSW) 21:32:05 435.675
SRMSAT 24 Feb 21:34:36 21:40:24 54° 339° (NNW) 21:46:13 437.500
PRISM 24 Feb 21:40:46 21:44:21 30° 102° (ESE) 21:48:01 437.425
CUBEBUG 2 24 Feb 21:47:43 21:49:55 14° 259° (W) 21:52:09 437.445
AO-73 24 Feb 22:01:45 22:05:39 34° 259° (W) 22:09:37 145.935
FO-29 24 Feb 22:06:52 22:07:26 10° 100° (E) 22:08:00 435.910
YUBILEINY 24 Feb 22:08:36 22:15:50 30° 87° (E) 22:23:02 435.215
Oscar 11 24 Feb 22:09:53 22:13:45 31° 258° (WSW) 22:17:35 .
SO-50 24 Feb 22:10:35 22:15:11 49° 292° (WNW) 22:19:45 436.795
JUGNU 24 Feb 22:31:45 22:33:46 12° 351° (N) 22:35:48 437.505
DELFI C3 24 Feb 22:36:05 22:39:59 53° 258° (WSW) 22:43:52 145.870
O/OREOS (USA 219) 24 Feb 22:57:40 23:02:05 61° 284° (WNW) 23:06:28 437.305
UNISAT 6 24 Feb 23:08:12 23:12:36 46° 282° (WNW) 23:16:58 437.425
TIGRISAT 24 Feb 23:08:45 23:13:13 50° 282° (WNW) 23:17:37 435.000
SRMSAT 24 Feb 23:25:21 23:29:51 22° 344° (NNW) 23:34:22 437.500
AIST 2D 24 Feb 23:28:55 23:31:41 22° 101° (E) 23:34:28 435.315
LO-87 24 Feb 23:36:33 23:40:06 84° 81° (E) 23:43:38 145.935 - 145.965
FO-29 24 Feb 23:45:41 23:52:29 63° 284° (WNW) 23:58:29 435.910
ESTCUBE 1 24 Feb 23:59:11 00:03:41 65° 78° (ENE) 00:08:10 437.505/2401.250
YUBILEINY 25 Feb 00:04:38 00:12:13 34° 267° (W) 00:19:52 435.215
DUCHIFAT 1 25 Feb 00:09:19 00:13:18 40° 102° (ESE) 00:17:17 145.980
EO-79 25 Feb 00:18:47 00:23:01 74° 101° (E) 00:27:17 145.935-145.965
DX 1 25 Feb 00:26:15 00:27:27 11° 78° (ENE) 00:28:38 434.975-435.025
VELOX 1 25 Feb 00:28:50 00:32:56 38° 78° (ENE) 00:37:00 145.980
POLYITAN 1 25 Feb 00:36:04 00:40:16 60° 281° (WNW) 00:44:27 437.675
NANOSAT C BR1 25 Feb 00:36:22 00:40:34 67° 282° (WNW) 00:44:47 145.865
QB50P2 25 Feb 00:39:04 00:43:10 48° 282° (WNW) 00:47:18 145.880/145.840
UKube-1 25 Feb 00:40:03 00:41:19 11° 78° (ENE) 00:42:35 .
SPROUT 25 Feb 00:43:26 00:47:31 47° 78° (ENE) 00:51:34 437.525
BUGSAT 1 25 Feb 01:09:42 01:13:57 82° 104° (ESE) 01:18:11 437.445
SRMSAT 25 Feb 01:17:51 01:19:51 12° 352° (N) 01:21:51 437.500
Oscar 19 25 Feb 01:40:13 01:44:56 38° 103° (ESE) 01:49:42 437.125/150
50 SAT 25 Feb 01:42:46 01:45:21 19° 258° (WSW) 01:47:56 437.505
DX 1 25 Feb 01:59:35 02:03:22 29° 257° (WSW) 02:07:08 434.975-435.025
JUGNU 25 Feb 02:10:47 02:14:01 15° 12° (NNE) 02:17:16 437.505
UKube-1 25 Feb 02:13:22 02:17:04 28° 257° (WSW) 02:20:47 .
Gurwin Techsat 1B 25 Feb 02:18:20 02:23:29 53° 103° (ESE) 02:28:40 435.225
NO-84 25 Feb 03:04:03 03:07:54 29° 58° (ENE) 03:11:42 435.350 FM
SRMSAT 25 Feb 03:09:47 03:10:14 10° 3° (N) 03:10:42 437.500
Oscar 19 25 Feb 03:21:56 03:23:59 12° 283° (WNW) 03:26:01 437.125/150
RS-15 25 Feb 03:32:00 03:40:36 23° 67° (ENE) 03:48:51 29.354- 29.394
ITUPSAT 1 25 Feb 03:33:10 03:37:58 86° 257° (WSW) 03:42:45 437.325
BEESAT 25 Feb 03:40:19 03:45:03 67° 257° (WSW) 03:49:48 436.000
ITAMSAT 1 25 Feb 03:50:59 03:56:11 79° 102° (ESE) 04:01:24 435.822/435.867
AO-85 25 Feb 03:52:41 03:57:49 82° 291° (WNW) 04:02:36 145.980
JUGNU 25 Feb 03:58:18 04:03:34 32° 19° (NNE) 04:08:52 437.505
PCSat 25 Feb 04:06:28 04:11:49 67° 251° (WSW) 04:17:11 145.827
MOZHAYETS 4 25 Feb 04:07:35 04:12:12 76° 78° (ENE) 04:16:50
AO-7 25 Feb 04:13:53 04:22:10 83° 106° (ESE) 04:30:28 .
NO-84 25 Feb 04:42:39 04:45:26 16° 238° (WSW) 04:48:10 435.350 FM
KKS-1 25 Feb 04:44:00 04:48:08 39° 78° (ENE) 04:52:15 437.445
SRMSAT 25 Feb 04:56:50 05:00:28 16° 13° (NNE) 05:04:05 437.500
CUBESAT XI-V 25 Feb 05:05:19 05:09:46 42° 78° (ENE) 05:14:09 437.345
STARS 25 Feb 05:19:52 05:24:01 44° 78° (ENE) 05:28:09 437.465
BEESAT 3 25 Feb 05:27:38 05:31:16 43° 111° (ESE) 05:34:55 437.485
RS-15 25 Feb 05:41:16 05:52:45 61° 250° (WSW) 06:03:43 29.354- 29.394
DOVE 4 25 Feb 05:46:21 05:49:00 14° 103° (ESE) 05:51:42 437.250
JUGNU 25 Feb 05:46:42 05:52:42 87° 21° (NNE) 05:58:44 437.505
XW-2B 25 Feb 05:57:04 05:57:32 10° 102° (ESE) 05:58:00 145.730 - 145.750
M-CUBED/EXP-1 PRIME 25 Feb 06:00:43 06:04:23 81° 254° (WSW) 06:07:48 437.505
ISS 25 Feb 06:01:04 06:04:10 39° 126° (SE) 06:07:15 437.550
XW-2C 25 Feb 06:04:03 06:06:09 14° 101° (ESE) 06:08:13 145.795 - 145.815
BEESAT 2 25 Feb 06:04:25 06:08:07 45° 111° (ESE) 06:11:50 435.950
AO-7 25 Feb 06:13:02 06:14:27 10° 288° (WNW) 06:15:52 .
NUDT-PHONESAT 25 Feb 06:17:41 06:20:15 18° 101° (ESE) 06:22:48 437.300
LilacSat-2 25 Feb 06:19:06 06:22:18 26° 101° (E) 06:25:30 437.200
Tancredo 1 25 Feb 06:28:07 06:31:20 62° 305° (NW) 06:34:32 437.200
CUTE-I 25 Feb 06:34:00 06:39:03 42° 103° (ESE) 06:44:05 437.470
SRMSAT 25 Feb 06:44:40 06:50:07 36° 19° (NNE) 06:55:35 437.500
STRAND 1 25 Feb 06:56:01 06:57:31 11° 77° (ENE) 06:59:01 437.568
KAITUO 1B 25 Feb 07:14:47 07:18:20 45° 281° (WNW) 07:21:54 145.475/437.950
XW-2F 25 Feb 07:18:47 07:22:08 31° 282° (WNW) 07:25:30 145.980 - 146.000
DOVE 4 25 Feb 07:21:43 07:26:19 36° 281° (W) 07:31:06 437.250
XW-2D 25 Feb 07:23:19 07:26:26 25° 281° (WNW) 07:29:35 145.860 - 145.880
HO-68 25 Feb 07:24:30 07:30:17 27° 105° (ESE) 07:36:05 435.675
XW-2B 25 Feb 07:28:30 07:31:28 22° 281° (WNW) 07:34:26 145.730 - 145.750
SEEDS 25 Feb 07:34:40 07:35:38 11° 102° (ESE) 07:36:35 437.485
JUGNU 25 Feb 07:36:25 07:41:50 35° 199° (SSW) 07:47:16 437.505
XW-2C 25 Feb 07:37:42 07:40:05 16° 281° (WNW) 07:42:28 145.795 - 145.815
XW-2A 25 Feb 07:38:44 07:41:57 38° 101° (E) 07:45:09 145.665 - 145.685
NUDT-PHONESAT 25 Feb 07:52:19 07:53:54 12° 282° (WNW) 07:55:30 437.300
CUTE 1.7 + AOD 2 25 Feb 08:08:42 08:12:51 67° 102° (ESE) 08:17:01 437.475
CUTE-I 25 Feb 08:16:46 08:18:48 12° 283° (WNW) 08:20:49 437.470
CUBEBUG 2 25 Feb 08:21:53 08:26:09 36° 101° (E) 08:30:20 437.445
STRAND 1 25 Feb 08:31:36 08:36:24 41° 257° (WSW) 08:41:12 437.568
SRMSAT 25 Feb 08:33:24 08:39:24 84° 202° (SSW) 08:45:24 437.500
AO-73 25 Feb 08:37:18 08:39:19 13° 101° (ESE) 08:41:18 145.935
Oscar 11 25 Feb 08:44:20 08:46:30 14° 102° (ESE) 08:48:39 .
SO-50 25 Feb 08:45:02 08:47:27 14° 68° (ENE) 08:49:53 436.795
AAUSAT CUBESAT 2 25 Feb 08:57:41 09:01:45 82° 99° (E) 09:05:53 437.432
UWE-3 25 Feb 09:00:03 09:04:34 68° 102° (ESE) 09:08:59 435.000/436.395/437.385
SEEDS 25 Feb 09:07:32 09:11:02 27° 281° (WNW) 09:14:34 437.485
HO-68 25 Feb 09:11:28 09:17:40 33° 285° (WNW) 09:23:57 435.675
ZACube-1 25 Feb 09:22:13 09:26:37 70° 101° (E) 09:30:56 437.345
JUGNU 25 Feb 09:27:49 09:31:23 16° 193° (SSW) 09:34:56 437.505
PRISM 25 Feb 09:43:22 09:47:06 33° 78° (ENE) 09:50:48 437.425
UNISAT 6 25 Feb 09:47:49 09:49:09 11° 77° (ENE) 09:50:30 437.425
TIGRISAT 25 Feb 09:49:11 09:49:36 10° 77° (ENE) 09:50:01 435.000
CUBEBUG 2 25 Feb 10:01:39 10:02:26 10° 283° (WNW) 10:03:12 437.445
AO-73 25 Feb 10:11:40 10:15:17 25° 282° (WNW) 10:18:52 145.935
Oscar 11 25 Feb 10:18:56 10:22:21 23° 282° (WNW) 10:25:47 .
SRMSAT 25 Feb 10:23:27 10:28:42 31° 199° (SSW) 10:33:56 437.500
SO-50 25 Feb 10:23:56 10:27:39 26° 247° (WSW) 10:31:24 436.795
DELFI C3 25 Feb 10:34:22 10:38:12 56° 282° (WNW) 10:42:05 145.870
YUBILEINY 25 Feb 10:40:45 10:49:25 59° 93° (E) 10:58:00 435.215
O/OREOS (USA 219) 25 Feb 11:08:49 11:13:00 35° 255° (WSW) 11:17:12 437.305
AIST 2D 25 Feb 11:16:08 11:17:52 13° 79° (E) 11:19:37 435.315
FO-29 25 Feb 11:16:41 11:22:50 68° 76° (ENE) 11:29:46 435.910
JUGNU 25 Feb 11:21:20 11:21:27 10° 183° (S) 11:21:33 437.505
UNISAT 6 25 Feb 11:21:47 11:25:34 29° 259° (WSW) 11:29:24 437.425
TIGRISAT 25 Feb 11:22:07 11:25:59 32° 259° (WSW) 11:29:55 435.000
LO-87 25 Feb 11:24:33 11:28:03 50° 101° (E) 11:31:35 145.935 - 145.965
ESTCUBE 1 25 Feb 12:13:09 12:17:36 79° 281° (W) 12:22:06 437.505/2401.250
DUCHIFAT 1 25 Feb 12:14:37 12:18:39 48° 78° (ENE) 12:22:40 145.980
SRMSAT 25 Feb 12:15:15 12:18:26 15° 192° (SSW) 12:21:37 437.500
EO-79 25 Feb 12:24:52 12:29:04 89° 258° (WSW) 12:33:16 145.935-145.965
DX 1 25 Feb 12:34:21 12:36:55 15° 103° (ESE) 12:39:30 434.975-435.025
VELOX 1 25 Feb 12:39:58 12:44:18 56° 102° (ESE) 12:48:40 145.980
YUBILEINY 25 Feb 12:40:48 12:45:47 16° 273° (W) 12:50:49 435.215
NANOSAT C BR1 25 Feb 12:42:09 12:46:14 54° 258° (WSW) 12:50:19 145.865
POLYITAN 1 25 Feb 12:42:25 12:46:28 47° 258° (WSW) 12:50:31 437.675
QB50P2 25 Feb 12:45:30 12:49:25 38° 258° (WSW) 12:53:20 145.880/145.840
UKube-1 25 Feb 12:47:11 12:49:38 15° 103° (ESE) 12:52:05 .
AIST 2D 25 Feb 12:48:50 12:50:50 15° 259° (W) 12:52:50 435.315
SPROUT 25 Feb 12:50:22 12:54:36 61° 101° (E) 12:58:51 437.525
JUGNU 25 Feb 13:09:38 13:11:40 12° 172° (S) 13:13:42 437.505
BUGSAT 1 25 Feb 13:12:55 13:16:55 90° 159° (SSE) 13:20:57 437.445
50 SAT 25 Feb 13:27:49 13:30:57 33° 281° (W) 13:34:07 437.505
DX 1 25 Feb 14:09:27 14:12:49 22° 282° (WNW) 14:16:13 434.975-435.025
Oscar 19 25 Feb 14:13:32 14:18:44 81° 257° (WSW) 14:23:53 437.125/150
UKube-1 25 Feb 14:22:02 14:25:23 22° 282° (WNW) 14:28:45 .
BEESAT 25 Feb 14:27:35 14:29:22 12° 103° (ESE) 14:31:08 436.000
ITAMSAT 1 25 Feb 14:49:51 14:52:00 13° 77° (ENE) 14:54:09 435.822/435.867
NO-84 25 Feb 14:51:00 14:52:40 14° 122° (ESE) 14:54:19 435.350 FM
AO-7 25 Feb 14:51:34 14:56:17 16° 73° (ENE) 15:00:57 .
Gurwin Techsat 1B 25 Feb 14:56:52 15:02:02 53° 257° (WSW) 15:07:11 435.225
JUGNU 25 Feb 14:56:58 15:01:29 22° 164° (SSE) 15:05:58 437.505
PCSat 25 Feb 15:00:31 15:04:53 25° 109° (ESE) 15:09:12 145.827
RS-15 25 Feb 15:14:40 15:21:31 18° 112° (ESE) 15:28:29 29.354- 29.394
ITUPSAT 1 25 Feb 15:55:41 16:00:10 43° 282° (WNW) 16:04:41 437.325
SRMSAT 25 Feb 15:56:43 15:59:03 12° 171° (S) 16:01:22 437.500
BEESAT 25 Feb 16:02:35 16:06:51 34° 283° (WNW) 16:11:08 436.000
AO-85 25 Feb 16:05:30 16:09:24 41° 247° (WSW) 16:13:37 145.980
MOZHAYETS 4 25 Feb 16:24:20 16:28:50 63° 282° (WNW) 16:33:20
ITAMSAT 1 25 Feb 16:26:23 16:31:11 39° 257° (WSW) 16:35:58 435.822/435.867
AO-7 25 Feb 16:40:21 16:48:36 64° 254° (WSW) 16:56:51 .
PCSat 25 Feb 16:43:57 16:47:59 21° 290° (WNW) 16:52:01 145.827
JUGNU 25 Feb 16:44:59 16:50:45 55° 159° (SSE) 16:56:28 437.505
KKS-1 25 Feb 16:56:03 17:00:27 60° 102° (ESE) 17:04:52 437.445
BEESAT 3 25 Feb 17:19:25 17:23:12 45° 68° (ENE) 17:26:57 437.485
RS-15 25 Feb 17:22:11 17:33:28 73° 291° (WNW) 17:45:24 29.354- 29.394
CUBESAT XI-V 25 Feb 17:23:16 17:27:50 75° 102° (ESE) 17:32:27 437.345
STARS 25 Feb 17:30:20 17:34:43 64° 102° (ESE) 17:39:08 437.465
ISS 25 Feb 17:35:16 17:37:55 23° 54° (NE) 17:40:34 437.550
SRMSAT 25 Feb 17:44:12 17:48:56 24° 163° (SSE) 17:53:41 437.500
BEESAT 2 25 Feb 17:57:26 18:01:18 48° 69° (ENE) 18:05:08 435.950
M-CUBED/EXP-1 PRIME 25 Feb 17:58:23 18:02:39 89° 88° (E) 18:07:13 437.505
XW-2C 25 Feb 17:58:29 17:59:53 12° 79° (ENE) 18:01:17 145.795 - 145.815
Tancredo 1 25 Feb 18:00:37 18:03:46 67° 56° (NE) 18:06:55 437.200
DOVE 4 25 Feb 18:06:48 18:09:57 20° 79° (E) 18:13:00 437.250
NUDT-PHONESAT 25 Feb 18:10:05 18:11:56 13° 79° (ENE) 18:13:48 437.300
LilacSat-2 25 Feb 18:13:37 18:16:39 22° 79° (E) 18:19:41 437.200
JUGNU 25 Feb 18:34:05 18:39:47 53° 339° (NNW) 18:45:28 437.505
KAITUO 1B 25 Feb 19:06:59 19:10:45 63° 260° (W) 19:14:29 145.475/437.950
XW-2F 25 Feb 19:11:53 19:15:29 41° 259° (W) 19:19:05 145.980 - 146.000
CUTE-I 25 Feb 19:13:07 19:18:23 65° 258° (WSW) 19:23:37 437.470
HO-68 25 Feb 19:16:37 19:21:58 23° 75° (ENE) 19:27:15 435.675
XW-2D 25 Feb 19:16:43 19:20:09 32° 259° (W) 19:23:35 145.860 - 145.880
XW-2B 25 Feb 19:21:53 19:25:11 28° 259° (WSW) 19:28:30 145.730 - 145.750
XW-2A 25 Feb 19:22:21 19:24:47 19° 79° (E) 19:27:13 145.665 - 145.685
STRAND 1 25 Feb 19:25:40 19:30:04 29° 103° (ESE) 19:34:27 437.568
XW-2C 25 Feb 19:30:56 19:33:49 20° 259° (WSW) 19:36:42 145.795 - 145.815
SRMSAT 25 Feb 19:32:27 19:38:19 63° 159° (SSE) 19:44:12 437.500
SEEDS 25 Feb 19:38:46 19:40:52 13° 78° (ENE) 19:42:57 437.485
NUDT-PHONESAT 25 Feb 19:43:09 19:45:36 17° 259° (WSW) 19:48:04 437.300
DOVE 4 25 Feb 19:44:55 19:47:23 15° 257° (WSW) 19:49:47 437.250
LilacSat-2 25 Feb 19:49:40 19:50:40 11° 259° (WSW) 19:51:40 437.200
